owner,sensor,date,latitude,longitude,sea_surface_height_above_sea_level,qcFlag 
TCOON,ioos:station:TCOON:003:1,2019-01-01T00:24:00Z,26.8015,-97.4706,1.185,1111122 
TCOON,ioos:station:TCOON:003:1,2019-01-01T01:24:00Z,26.8015,-97.4706,1.18,1111122 
TCOON,ioos:station:TCOON:003:1,2019-01-01T02:24:00Z,26.8015,-97.4706,1.181,1111122 
TCOON,ioos:station:TCOON:003:1,2019-01-01T03:24:00Z,26.8015,-97.4706,1.184,1111122 
TCOON,ioos:station:TCOON:003:1,2019-01-01T04:24:00Z,26.8015,-97.4706,1.186,1111122 
TCOON,ioos:station:TCOON:003:1,2019-01-01T05:24:00Z,26.8015,-97.4706,1.188,1111122 
TCOON,ioos:station:TCOON:003:1,2019-01-01T06:24:00Z,26.8015,-97.4706,1.187,1111122 
TCOON,ioos:station:TCOON:003:1,2019-01-01T07:24:00Z,26.8015,-97.4706,1.189,1111122 
TCOON,ioos:station:TCOON:003:1,2019-01-01T08:24:00Z,26.8015,-97.4706,1.182,1111122 
TCOON,ioos:station:TCOON:003:1,2019-01-01T09:24:00Z,26.8015,-97.4706,1.172,1111122 
TCOON,ioos:station:TCOON:003:1,2019-01-01T10:24:00Z,26.8015,-97.4706,1.165,1111122 
TCOON,ioos:station:TCOON:003:1,2019-01-01T11:24:00Z,26.8015,-97.4706,1.16,1111122 
TCOON,ioos:station:TCOON:003:1,2019-01-01T12:24:00Z,26.8015,-97.4706,1.155,1111122 
TCOON,ioos:station:TCOON:003:1,2019-01-01T13:24:00Z,26.8015,-97.4706,1.14,1111122 
TCOON,ioos:station:TCOON:003:1,2019-01-01T14:24:00Z,26.8015,-97.4706,1.132,1111122 
TCOON,ioos:station:TCOON:003:1,2019-01-01T15:24:00Z,26.8015,-97.4706,1.125,1111122 
TCOON,ioos:station:TCOON:003:1,2019-01-01T16:24:00Z,26.8015,-97.4706,1.116,1111122 
TCOON,ioos:station:TCOON:003:1,2019-01-01T17:24:00Z,26.8015,-97.4706,1.1,1111122 
TCOON,ioos:station:TCOON:003:1,2019-01-01T18:24:00Z,26.8015,-97.4706,1.115,1111122 
TCOON,ioos:station:TCOON:003:1,2019-01-01T19:24:00Z,26.8015,-97.4706,1.119,1111122 
TCOON,ioos:station:TCOON:003:1,2019-01-01T20:24:00Z,26.8015,-97.4706,1.106,1111122 
TCOON,ioos:station:TCOON:003:1,2019-01-01T21:24:00Z,26.8015,-97.4706,1.1,1111122 
TCOON,ioos:station:TCOON:003:1,2019-01-01T22:24:00Z,26.8015,-97.4706,1.105,1111122 
TCOON,ioos:station:TCOON:003:1,2019-01-01T23:24:00Z,26.8015,-97.4706,1.109,1111122 
TCOON,ioos:station:TCOON:003:1,2019-01-02T00:24:00Z,26.8015,-97.4706,1.108,1111122 
TCOON,ioos:station:TCOON:003:1,2019-01-02T01:24:00Z,26.8015,-97.4706,1.113,1111122 
TCOON,ioos:station:TCOON:003:1,2019-01-02T02:24:00Z,26.8015,-97.4706,1.112,1111122 
TCOON,ioos:station:TCOON:003:1,2019-01-02T03:24:00Z,26.8015,-97.4706,1.112,1111122 
TCOON,ioos:station:TCOON:003:1,2019-01-02T04:24:00Z,26.8015,-97.4706,1.112,1111122 
TCOON,ioos:station:TCOON:003:1,2019-01-02T05:24:00Z,26.8015,-97.4706,1.103,1111122 
TCOON,ioos:station:TCOON:003:1,2019-01-02T06:24:00Z,26.8015,-97.4706,1.09,1111122 
TCOON,ioos:station:TCOON:003:1,2019-01-02T07:24:00Z,26.8015,-97.4706,1.071,1111122 
TCOON,ioos:station:TCOON:003:1,2019-01-02T08:24:00Z,26.8015,-97.4706,1.054,1111122 
TCOON,ioos:station:TCOON:003:1,2019-01-02T09:24:00Z,26.8015,-97.4706,1.039,1111122 
TCOON,ioos:station:TCOON:003:1,2019-01-02T10:24:00Z,26.8015,-97.4706,1.024,1111122 
TCOON,ioos:station:TCOON:003:1,2019-01-02T11:24:00Z,26.8015,-97.4706,1.001,1111122 
TCOON,ioos:station:TCOON:003:1,2019-01-02T12:24:00Z,26.8015,-97.4706,0.994,1111122 
TCOON,ioos:station:TCOON:003:1,2019-01-02T13:24:00Z,26.8015,-97.4706,0.991,1111122 
TCOON,ioos:station:TCOON:003:1,2019-01-02T14:24:00Z,26.8015,-97.4706,0.99,1111122 
TCOON,ioos:station:TCOON:003:1,2019-01-02T15:24:00Z,26.8015,-97.4706,1.004,1111122 
TCOON,ioos:station:TCOON:003:1,2019-01-02T16:24:00Z,26.8015,-97.4706,1.012,1111122 
TCOON,ioos:station:TCOON:003:1,2019-01-02T17:24:00Z,26.8015,-97.4706,1.014,1111122 
TCOON,ioos:station:TCOON:003:1,2019-01-02T18:24:00Z,26.8015,-97.4706,1.024,1111122 
TCOON,ioos:station:TCOON:003:1,2019-01-02T19:24:00Z,26.8015,-97.4706,1.025,1111122 
TCOON,ioos:station:TCOON:003:1,2019-01-02T20:24:00Z,26.8015,-97.4706,1.033,1111122 
TCOON,ioos:station:TCOON:003:1,2019-01-02T21:24:00Z,26.8015,-97.4706,1.039,1111122 
TCOON,ioos:station:TCOON:003:1,2019-01-02T22:24:00Z,26.8015,-97.4706,1.03,1111122 
TCOON,ioos:station:TCOON:003:1,2019-01-02T23:24:00Z,26.8015,-97.4706,1.026,1111122 
TCOON,ioos:station:TCOON:003:1,2019-01-03T00:24:00Z,26.8015,-97.4706,1.024,1111122 
TCOON,ioos:station:TCOON:003:1,2019-01-03T01:24:00Z,26.8015,-97.4706,1.033,1111122 
TCOON,ioos:station:TCOON:003:1,2019-01-03T02:24:00Z,26.8015,-97.4706,1.056,1111122 
TCOON,ioos:station:TCOON:003:1,2019-01-03T03:24:00Z,26.8015,-97.4706,1.077,1111122 
TCOON,ioos:station:TCOON:003:1,2019-01-03T04:24:00Z,26.8015,-97.4706,1.1,1111122 
TCOON,ioos:station:TCOON:003:1,2019-01-03T05:24:00Z,26.8015,-97.4706,1.109,1111122 
TCOON,ioos:station:TCOON:003:1,2019-01-03T06:24:00Z,26.8015,-97.4706,1.117,1111122 
TCOON,ioos:station:TCOON:003:1,2019-01-03T07:24:00Z,26.8015,-97.4706,1.115,1111122 
TCOON,ioos:station:TCOON:003:1,2019-01-03T08:24:00Z,26.8015,-97.4706,1.106,1111122 
TCOON,ioos:station:TCOON:003:1,2019-01-03T09:24:00Z,26.8015,-97.4706,1.08,1111122 
TCOON,ioos:station:TCOON:003:1,2019-01-03T10:24:00Z,26.8015,-97.4706,1.065,1111122 
TCOON,ioos:station:TCOON:003:1,2019-01-03T11:24:00Z,26.8015,-97.4706,1.049,1111122 
TCOON,ioos:station:TCOON:003:1,2019-01-03T12:24:00Z,26.8015,-97.4706,1.037,1111122 
TCOON,ioos:station:TCOON:003:1,2019-01-03T13:24:00Z,26.8015,-97.4706,1.021,1111122 
TCOON,ioos:station:TCOON:003:1,2019-01-03T14:24:00Z,26.8015,-97.4706,0.999,1111122 
TCOON,ioos:station:TCOON:003:1,2019-01-03T15:24:00Z,26.8015,-97.4706,0.995,1111122 
TCOON,ioos:station:TCOON:003:1,2019-01-03T16:24:00Z,26.8015,-97.4706,1.0,1111122 
TCOON,ioos:station:TCOON:003:1,2019-01-03T17:24:00Z,26.8015,-97.4706,0.998,1111122 
TCOON,ioos:station:TCOON:003:1,2019-01-03T18:24:00Z,26.8015,-97.4706,0.989,1111122 
TCOON,ioos:station:TCOON:003:1,2019-01-03T19:30:00Z,26.8015,-97.4706,0.984,1111122 
TCOON,ioos:station:TCOON:003:1,2019-01-03T20:24:00Z,26.8015,-97.4706,0.978,1111122 
TCOON,ioos:station:TCOON:003:1,2019-01-03T21:24:00Z,26.8015,-97.4706,0.997,1111122 
TCOON,ioos:station:TCOON:003:1,2019-01-03T22:24:00Z,26.8015,-97.4706,1.014,1111122 
TCOON,ioos:station:TCOON:003:1,2019-01-03T23:24:00Z,26.8015,-97.4706,1.049,1111122 
TCOON,ioos:station:TCOON:003:1,2019-01-04T00:24:00Z,26.8015,-97.4706,1.081,1111122 
TCOON,ioos:station:TCOON:003:1,2019-01-04T01:24:00Z,26.8015,-97.4706,1.106,1111122 
TCOON,ioos:station:TCOON:003:1,2019-01-04T02:24:00Z,26.8015,-97.4706,1.112,1111122 
TCOON,ioos:station:TCOON:003:1,2019-01-04T03:24:00Z,26.8015,-97.4706,1.109,1111122 
TCOON,ioos:station:TCOON:003:1,2019-01-04T04:24:00Z,26.8015,-97.4706,1.108,1111122 
TCOON,ioos:station:TCOON:003:1,2019-01-04T05:24:00Z,26.8015,-97.4706,1.141,1111122 
TCOON,ioos:station:TCOON:003:1,2019-01-04T06:24:00Z,26.8015,-97.4706,1.141,1111122 
TCOON,ioos:station:TCOON:003:1,2019-01-04T07:24:00Z,26.8015,-97.4706,1.153,1111122 
TCOON,ioos:station:TCOON:003:1,2019-01-04T08:24:00Z,26.8015,-97.4706,1.14,1111122 
TCOON,ioos:station:TCOON:003:1,2019-01-04T09:24:00Z,26.8015,-97.4706,1.128,1111122 
TCOON,ioos:station:TCOON:003:1,2019-01-04T10:24:00Z,26.8015,-97.4706,1.123,1111122 
TCOON,ioos:station:TCOON:003:1,2019-01-04T11:24:00Z,26.8015,-97.4706,1.121,1111122 
TCOON,ioos:station:TCOON:003:1,2019-01-04T12:24:00Z,26.8015,-97.4706,1.122,1111122 
TCOON,ioos:station:TCOON:003:1,2019-01-04T13:24:00Z,26.8015,-97.4706,1.117,1111122 
TCOON,ioos:station:TCOON:003:1,2019-01-04T14:24:00Z,26.8015,-97.4706,1.115,1111122 
TCOON,ioos:station:TCOON:003:1,2019-01-04T15:24:00Z,26.8015,-97.4706,1.121,1111122 
TCOON,ioos:station:TCOON:003:1,2019-01-04T16:24:00Z,26.8015,-97.4706,1.122,1111122 
TCOON,ioos:station:TCOON:003:1,2019-01-04T17:24:00Z,26.8015,-97.4706,1.128,1111122 
TCOON,ioos:station:TCOON:003:1,2019-01-04T18:24:00Z,26.8015,-97.4706,1.119,1111122 
TCOON,ioos:station:TCOON:003:1,2019-01-04T19:24:00Z,26.8015,-97.4706,1.097,1111122 
TCOON,ioos:station:TCOON:003:1,2019-01-04T20:24:00Z,26.8015,-97.4706,1.094,1111122 
TCOON,ioos:station:TCOON:003:1,2019-01-04T21:24:00Z,26.8015,-97.4706,1.104,1111122 
TCOON,ioos:station:TCOON:003:1,2019-01-04T22:24:00Z,26.8015,-97.4706,1.109,1111122 
TCOON,ioos:station:TCOON:003:1,2019-01-04T23:24:00Z,26.8015,-97.4706,1.134,1111122 
TCOON,ioos:station:TCOON:003:1,2019-01-05T00:24:00Z,26.8015,-97.4706,1.138,1111122 
TCOON,ioos:station:TCOON:003:1,2019-01-05T01:24:00Z,26.8015,-97.4706,1.134,1111122 
TCOON,ioos:station:TCOON:003:1,2019-01-05T02:24:00Z,26.8015,-97.4706,1.135,1111122 
TCOON,ioos:station:TCOON:003:1,2019-01-05T03:24:00Z,26.8015,-97.4706,1.132,1111122 
TCOON,ioos:station:TCOON:003:1,2019-01-05T04:24:00Z,26.8015,-97.4706,1.137,1111122 
TCOON,ioos:station:TCOON:003:1,2019-01-05T05:24:00Z,26.8015,-97.4706,1.135,1111122 
TCOON,ioos:station:TCOON:003:1,2019-01-05T06:24:00Z,26.8015,-97.4706,1.136,1111122 
TCOON,ioos:station:TCOON:003:1,2019-01-05T07:24:00Z,26.8015,-97.4706,1.131,1111122 
TCOON,ioos:station:TCOON:003:1,2019-01-05T08:24:00Z,26.8015,-97.4706,1.122,1111122 
TCOON,ioos:station:TCOON:003:1,2019-01-05T09:24:00Z,26.8015,-97.4706,1.121,1111122 
TCOON,ioos:station:TCOON:003:1,2019-01-05T10:24:00Z,26.8015,-97.4706,1.12,1111122 
TCOON,ioos:station:TCOON:003:1,2019-01-05T11:24:00Z,26.8015,-97.4706,1.115,1111122 
TCOON,ioos:station:TCOON:003:1,2019-01-05T12:24:00Z,26.8015,-97.4706,1.111,1111122 
TCOON,ioos:station:TCOON:003:1,2019-01-05T13:24:00Z,26.8015,-97.4706,1.103,1111122 
TCOON,ioos:station:TCOON:003:1,2019-01-05T14:24:00Z,26.8015,-97.4706,1.098,1111122 
TCOON,ioos:station:TCOON:003:1,2019-01-05T15:24:00Z,26.8015,-97.4706,1.084,1111122 
TCOON,ioos:station:TCOON:003:1,2019-01-05T16:24:00Z,26.8015,-97.4706,1.075,1111122 
TCOON,ioos:station:TCOON:003:1,2019-01-05T17:24:00Z,26.8015,-97.4706,1.082,1111122 
TCOON,ioos:station:TCOON:003:1,2019-01-05T18:24:00Z,26.8015,-97.4706,1.082,1111122 
TCOON,ioos:station:TCOON:003:1,2019-01-05T19:24:00Z,26.8015,-97.4706,1.083,1111122 
TCOON,ioos:station:TCOON:003:1,2019-01-05T20:24:00Z,26.8015,-97.4706,1.081,1111122 
TCOON,ioos:station:TCOON:003:1,2019-01-05T21:24:00Z,26.8015,-97.4706,1.099,1111122 
TCOON,ioos:station:TCOON:003:1,2019-01-05T22:24:00Z,26.8015,-97.4706,1.11,1111122 
TCOON,ioos:station:TCOON:003:1,2019-01-05T23:24:00Z,26.8015,-97.4706,1.126,1111122 
TCOON,ioos:station:TCOON:003:1,2019-01-06T00:24:00Z,26.8015,-97.4706,1.134,1111122 
TCOON,ioos:station:TCOON:003:1,2019-01-06T01:24:00Z,26.8015,-97.4706,1.129,1111122 
TCOON,ioos:station:TCOON:003:1,2019-01-06T03:24:00Z,26.8015,-97.4706,1.101,1111122 
TCOON,ioos:station:TCOON:003:1,2019-01-06T04:30:00Z,26.8015,-97.4706,1.095,1111122 
TCOON,ioos:station:TCOON:003:1,2019-01-06T05:30:00Z,26.8015,-97.4706,1.101,1111122 
TCOON,ioos:station:TCOON:003:1,2019-01-06T06:30:00Z,26.8015,-97.4706,1.107,1111122 
TCOON,ioos:station:TCOON:003:1,2019-01-06T07:30:00Z,26.8015,-97.4706,1.108,1111122 
TCOON,ioos:station:TCOON:003:1,2019-01-06T08:30:00Z,26.8015,-97.4706,1.11,1111122 
TCOON,ioos:station:TCOON:003:1,2019-01-06T09:30:00Z,26.8015,-97.4706,1.106,1111122 
TCOON,ioos:station:TCOON:003:1,2019-01-06T10:30:00Z,26.8015,-97.4706,1.103,1111122 
TCOON,ioos:station:TCOON:003:1,2019-01-06T11:30:00Z,26.8015,-97.4706,1.094,1111122 
TCOON,ioos:station:TCOON:003:1,2019-01-06T12:30:00Z,26.8015,-97.4706,1.09,1111122 
TCOON,ioos:station:TCOON:003:1,2019-01-06T13:30:00Z,26.8015,-97.4706,1.086,1111122 
TCOON,ioos:station:TCOON:003:1,2019-01-06T14:30:00Z,26.8015,-97.4706,1.085,1111122 
TCOON,ioos:station:TCOON:003:1,2019-01-06T15:30:00Z,26.8015,-97.4706,1.084,1111122 
TCOON,ioos:station:TCOON:003:1,2019-01-06T16:24:00Z,26.8015,-97.4706,1.082,1111122 
TCOON,ioos:station:TCOON:003:1,2019-01-06T17:24:00Z,26.8015,-97.4706,1.075,1111122 
TCOON,ioos:station:TCOON:003:1,2019-01-06T18:24:00Z,26.8015,-97.4706,1.081,1111122 
TCOON,ioos:station:TCOON:003:1,2019-01-06T19:24:00Z,26.8015,-97.4706,1.102,1111122 
TCOON,ioos:station:TCOON:003:1,2019-01-06T20:24:00Z,26.8015,-97.4706,1.129,1111122 
TCOON,ioos:station:TCOON:003:1,2019-01-06T21:24:00Z,26.8015,-97.4706,1.155,1111122 
TCOON,ioos:station:TCOON:003:1,2019-01-06T22:24:00Z,26.8015,-97.4706,1.165,1111122 
TCOON,ioos:station:TCOON:003:1,2019-01-06T23:24:00Z,26.8015,-97.4706,1.174,1111122 
TCOON,ioos:station:TCOON:003:1,2019-01-07T00:24:00Z,26.8015,-97.4706,1.162,1111122 
TCOON,ioos:station:TCOON:003:1,2019-01-07T01:24:00Z,26.8015,-97.4706,1.133,1111122 
TCOON,ioos:station:TCOON:003:1,2019-01-07T02:24:00Z,26.8015,-97.4706,1.13,1111122 
TCOON,ioos:station:TCOON:003:1,2019-01-07T03:24:00Z,26.8015,-97.4706,1.138,1111122 
TCOON,ioos:station:TCOON:003:1,2019-01-07T04:24:00Z,26.8015,-97.4706,1.138,1111122 
TCOON,ioos:station:TCOON:003:1,2019-01-07T05:24:00Z,26.8015,-97.4706,1.143,1111122 
TCOON,ioos:station:TCOON:003:1,2019-01-07T06:24:00Z,26.8015,-97.4706,1.143,1111122 
TCOON,ioos:station:TCOON:003:1,2019-01-07T08:54:00Z,26.8015,-97.4706,1.146,1111122 
TCOON,ioos:station:TCOON:003:1,2019-01-07T09:30:00Z,26.8015,-97.4706,1.143,1111122 
TCOON,ioos:station:TCOON:003:1,2019-01-07T10:30:00Z,26.8015,-97.4706,1.146,1111122 
TCOON,ioos:station:TCOON:003:1,2019-01-07T11:30:00Z,26.8015,-97.4706,1.135,1111122 
TCOON,ioos:station:TCOON:003:1,2019-01-07T12:30:00Z,26.8015,-97.4706,1.126,1111122 
TCOON,ioos:station:TCOON:003:1,2019-01-07T13:30:00Z,26.8015,-97.4706,1.126,1111122 
TCOON,ioos:station:TCOON:003:1,2019-01-07T14:30:00Z,26.8015,-97.4706,1.115,1111122 
TCOON,ioos:station:TCOON:003:1,2019-01-07T15:24:00Z,26.8015,-97.4706,1.102,1111122 
TCOON,ioos:station:TCOON:003:1,2019-01-07T16:24:00Z,26.8015,-97.4706,1.094,1111122 
TCOON,ioos:station:TCOON:003:1,2019-01-07T17:24:00Z,26.8015,-97.4706,1.092,1111122 
TCOON,ioos:station:TCOON:003:1,2019-01-07T18:24:00Z,26.8015,-97.4706,1.098,1111122 
TCOON,ioos:station:TCOON:003:1,2019-01-07T19:24:00Z,26.8015,-97.4706,1.118,1111122 
TCOON,ioos:station:TCOON:003:1,2019-01-07T20:24:00Z,26.8015,-97.4706,1.125,1111122 
TCOON,ioos:station:TCOON:003:1,2019-01-07T21:24:00Z,26.8015,-97.4706,1.143,1111122 
TCOON,ioos:station:TCOON:003:1,2019-01-07T22:24:00Z,26.8015,-97.4706,1.159,1111122 
TCOON,ioos:station:TCOON:003:1,2019-01-08T00:24:00Z,26.8015,-97.4706,1.15,1111122 
TCOON,ioos:station:TCOON:003:1,2019-01-08T01:24:00Z,26.8015,-97.4706,1.146,1111122 
TCOON,ioos:station:TCOON:003:1,2019-01-08T02:24:00Z,26.8015,-97.4706,1.139,1111122 
TCOON,ioos:station:TCOON:003:1,2019-01-08T03:24:00Z,26.8015,-97.4706,1.138,1111122 
TCOON,ioos:station:TCOON:003:1,2019-01-08T04:24:00Z,26.8015,-97.4706,1.148,1111122 
TCOON,ioos:station:TCOON:003:1,2019-01-08T05:24:00Z,26.8015,-97.4706,1.158,1111122 
TCOON,ioos:station:TCOON:003:1,2019-01-08T06:24:00Z,26.8015,-97.4706,1.157,1111122 
TCOON,ioos:station:TCOON:003:1,2019-01-08T07:24:00Z,26.8015,-97.4706,1.147,1111122 
TCOON,ioos:station:TCOON:003:1,2019-01-08T08:24:00Z,26.8015,-97.4706,1.132,1111122 
TCOON,ioos:station:TCOON:003:1,2019-01-08T09:24:00Z,26.8015,-97.4706,1.116,1111122 
TCOON,ioos:station:TCOON:003:1,2019-01-08T10:24:00Z,26.8015,-97.4706,1.109,1111122 
TCOON,ioos:station:TCOON:003:1,2019-01-08T11:24:00Z,26.8015,-97.4706,1.11,1111122 
TCOON,ioos:station:TCOON:003:1,2019-01-08T12:24:00Z,26.8015,-97.4706,1.117,1111122 
TCOON,ioos:station:TCOON:003:1,2019-01-08T13:24:00Z,26.8015,-97.4706,1.112,1111122 
TCOON,ioos:station:TCOON:003:1,2019-01-08T14:24:00Z,26.8015,-97.4706,1.109,1111122 
TCOON,ioos:station:TCOON:003:1,2019-01-08T15:24:00Z,26.8015,-97.4706,1.101,1111122 
TCOON,ioos:station:TCOON:003:1,2019-01-08T16:24:00Z,26.8015,-97.4706,1.097,1111122 
TCOON,ioos:station:TCOON:003:1,2019-01-08T17:24:00Z,26.8015,-97.4706,1.086,1111122 
TCOON,ioos:station:TCOON:003:1,2019-01-08T18:24:00Z,26.8015,-97.4706,1.088,1111122 
TCOON,ioos:station:TCOON:003:1,2019-01-08T19:24:00Z,26.8015,-97.4706,1.091,1111122 
TCOON,ioos:station:TCOON:003:1,2019-01-08T20:24:00Z,26.8015,-97.4706,1.09,1111122 
TCOON,ioos:station:TCOON:003:1,2019-01-08T21:24:00Z,26.8015,-97.4706,1.095,1111122 
TCOON,ioos:station:TCOON:003:1,2019-01-08T22:24:00Z,26.8015,-97.4706,1.101,1111122 
TCOON,ioos:station:TCOON:003:1,2019-01-08T23:24:00Z,26.8015,-97.4706,1.103,1111122 
TCOON,ioos:station:TCOON:003:1,2019-01-09T00:24:00Z,26.8015,-97.4706,1.103,1111122 
TCOON,ioos:station:TCOON:003:1,2019-01-09T01:24:00Z,26.8015,-97.4706,1.105,1111122 
TCOON,ioos:station:TCOON:003:1,2019-01-09T02:24:00Z,26.8015,-97.4706,1.109,1111122 
TCOON,ioos:station:TCOON:003:1,2019-01-09T03:24:00Z,26.8015,-97.4706,1.112,1111122 
TCOON,ioos:station:TCOON:003:1,2019-01-09T04:24:00Z,26.8015,-97.4706,1.111,1111122 
TCOON,ioos:station:TCOON:003:1,2019-01-09T05:24:00Z,26.8015,-97.4706,1.11,1111122 
TCOON,ioos:station:TCOON:003:1,2019-01-09T06:24:00Z,26.8015,-97.4706,1.11,1111122 
TCOON,ioos:station:TCOON:003:1,2019-01-09T07:24:00Z,26.8015,-97.4706,1.102,1111122 
TCOON,ioos:station:TCOON:003:1,2019-01-09T08:24:00Z,26.8015,-97.4706,1.093,1111122 
TCOON,ioos:station:TCOON:003:1,2019-01-09T09:24:00Z,26.8015,-97.4706,1.084,1111122 
TCOON,ioos:station:TCOON:003:1,2019-01-09T10:24:00Z,26.8015,-97.4706,1.075,1111122 
TCOON,ioos:station:TCOON:003:1,2019-01-09T11:24:00Z,26.8015,-97.4706,1.068,1111122 
TCOON,ioos:station:TCOON:003:1,2019-01-09T12:24:00Z,26.8015,-97.4706,1.042,1111122 
TCOON,ioos:station:TCOON:003:1,2019-01-09T13:24:00Z,26.8015,-97.4706,1.014,1111122 
TCOON,ioos:station:TCOON:003:1,2019-01-09T14:24:00Z,26.8015,-97.4706,0.993,1111122 
TCOON,ioos:station:TCOON:003:1,2019-01-09T16:54:00Z,26.8015,-97.4706,0.969,1111122 
TCOON,ioos:station:TCOON:003:1,2019-01-09T17:24:00Z,26.8015,-97.4706,0.963,1111122 
TCOON,ioos:station:TCOON:003:1,2019-01-09T18:30:00Z,26.8015,-97.4706,0.969,1111122 
TCOON,ioos:station:TCOON:003:1,2019-01-09T19:24:00Z,26.8015,-97.4706,0.98,1111122 
TCOON,ioos:station:TCOON:003:1,2019-01-09T20:24:00Z,26.8015,-97.4706,0.986,1111122 
TCOON,ioos:station:TCOON:003:1,2019-01-09T21:24:00Z,26.8015,-97.4706,0.971,1111122 
TCOON,ioos:station:TCOON:003:1,2019-01-09T22:24:00Z,26.8015,-97.4706,0.939,1111122 
TCOON,ioos:station:TCOON:003:1,2019-01-09T23:24:00Z,26.8015,-97.4706,0.912,1111122 
TCOON,ioos:station:TCOON:003:1,2019-01-10T00:24:00Z,26.8015,-97.4706,0.916,1111122 
TCOON,ioos:station:TCOON:003:1,2019-01-10T01:24:00Z,26.8015,-97.4706,0.931,1111122 
TCOON,ioos:station:TCOON:003:1,2019-01-10T02:24:00Z,26.8015,-97.4706,0.958,1111122 
TCOON,ioos:station:TCOON:003:1,2019-01-10T03:30:00Z,26.8015,-97.4706,0.979,1111122 
TCOON,ioos:station:TCOON:003:1,2019-01-10T04:24:00Z,26.8015,-97.4706,0.98,1111122 
TCOON,ioos:station:TCOON:003:1,2019-01-10T05:24:00Z,26.8015,-97.4706,0.985,1111122 
TCOON,ioos:station:TCOON:003:1,2019-01-10T06:24:00Z,26.8015,-97.4706,0.997,1111122 
TCOON,ioos:station:TCOON:003:1,2019-01-10T07:24:00Z,26.8015,-97.4706,1.014,1111122 
TCOON,ioos:station:TCOON:003:1,2019-01-10T08:24:00Z,26.8015,-97.4706,1.03,1111122 
TCOON,ioos:station:TCOON:003:1,2019-01-10T09:24:00Z,26.8015,-97.4706,1.035,1111122 
TCOON,ioos:station:TCOON:003:1,2019-01-10T10:24:00Z,26.8015,-97.4706,1.038,1111122 
TCOON,ioos:station:TCOON:003:1,2019-01-10T11:24:00Z,26.8015,-97.4706,1.041,1111122 
TCOON,ioos:station:TCOON:003:1,2019-01-10T12:24:00Z,26.8015,-97.4706,1.045,1111122 
TCOON,ioos:station:TCOON:003:1,2019-01-10T13:24:00Z,26.8015,-97.4706,1.045,1111122 
TCOON,ioos:station:TCOON:003:1,2019-01-10T14:24:00Z,26.8015,-97.4706,1.042,1111122 
TCOON,ioos:station:TCOON:003:1,2019-01-10T15:24:00Z,26.8015,-97.4706,1.04,1111122 
TCOON,ioos:station:TCOON:003:1,2019-01-10T16:24:00Z,26.8015,-97.4706,1.053,1111122 
TCOON,ioos:station:TCOON:003:1,2019-01-10T17:24:00Z,26.8015,-97.4706,1.053,1111122 
TCOON,ioos:station:TCOON:003:1,2019-01-10T18:24:00Z,26.8015,-97.4706,1.054,1111122 
TCOON,ioos:station:TCOON:003:1,2019-01-10T19:24:00Z,26.8015,-97.4706,1.054,1111122 
TCOON,ioos:station:TCOON:003:1,2019-01-10T20:24:00Z,26.8015,-97.4706,1.056,1111122 
TCOON,ioos:station:TCOON:003:1,2019-01-10T21:24:00Z,26.8015,-97.4706,1.07,1111122 
TCOON,ioos:station:TCOON:003:1,2019-01-10T22:24:00Z,26.8015,-97.4706,1.077,1111122 
TCOON,ioos:station:TCOON:003:1,2019-01-10T23:24:00Z,26.8015,-97.4706,1.08,1111122 
TCOON,ioos:station:TCOON:003:1,2019-01-11T00:24:00Z,26.8015,-97.4706,1.083,1111122 
TCOON,ioos:station:TCOON:003:1,2019-01-11T01:24:00Z,26.8015,-97.4706,1.087,1111122 
TCOON,ioos:station:TCOON:003:1,2019-01-11T02:24:00Z,26.8015,-97.4706,1.095,1111122 
TCOON,ioos:station:TCOON:003:1,2019-01-11T03:24:00Z,26.8015,-97.4706,1.104,1111122 
TCOON,ioos:station:TCOON:003:1,2019-01-11T04:24:00Z,26.8015,-97.4706,1.121,1111122 
TCOON,ioos:station:TCOON:003:1,2019-01-11T05:24:00Z,26.8015,-97.4706,1.134,1111122 
TCOON,ioos:station:TCOON:003:1,2019-01-11T06:24:00Z,26.8015,-97.4706,1.132,1111122 
TCOON,ioos:station:TCOON:003:1,2019-01-11T07:24:00Z,26.8015,-97.4706,1.135,1111122 
TCOON,ioos:station:TCOON:003:1,2019-01-11T08:24:00Z,26.8015,-97.4706,1.147,1111122 
TCOON,ioos:station:TCOON:003:1,2019-01-11T09:24:00Z,26.8015,-97.4706,1.153,1111122 
TCOON,ioos:station:TCOON:003:1,2019-01-11T10:24:00Z,26.8015,-97.4706,1.163,1111122 
TCOON,ioos:station:TCOON:003:1,2019-01-11T11:24:00Z,26.8015,-97.4706,1.179,1111122 
TCOON,ioos:station:TCOON:003:1,2019-01-11T12:24:00Z,26.8015,-97.4706,1.182,1111122 
TCOON,ioos:station:TCOON:003:1,2019-01-11T13:24:00Z,26.8015,-97.4706,1.179,1111122 
TCOON,ioos:station:TCOON:003:1,2019-01-11T14:24:00Z,26.8015,-97.4706,1.18,1111122 
TCOON,ioos:station:TCOON:003:1,2019-01-11T15:24:00Z,26.8015,-97.4706,1.194,1111122 
TCOON,ioos:station:TCOON:003:1,2019-01-11T16:24:00Z,26.8015,-97.4706,1.21,1111122 
TCOON,ioos:station:TCOON:003:1,2019-01-11T17:24:00Z,26.8015,-97.4706,1.23,1111122 
TCOON,ioos:station:TCOON:003:1,2019-01-11T18:24:00Z,26.8015,-97.4706,1.243,1111122 
TCOON,ioos:station:TCOON:003:1,2019-01-11T19:24:00Z,26.8015,-97.4706,1.251,1111122 
TCOON,ioos:station:TCOON:003:1,2019-01-11T20:24:00Z,26.8015,-97.4706,1.237,1111122 
TCOON,ioos:station:TCOON:003:1,2019-01-11T21:24:00Z,26.8015,-97.4706,1.25,1111122 
TCOON,ioos:station:TCOON:003:1,2019-01-11T22:24:00Z,26.8015,-97.4706,1.269,1111122 
TCOON,ioos:station:TCOON:003:1,2019-01-11T23:24:00Z,26.8015,-97.4706,1.263,1111122 
TCOON,ioos:station:TCOON:003:1,2019-01-12T00:24:00Z,26.8015,-97.4706,1.245,1111122 
TCOON,ioos:station:TCOON:003:1,2019-01-12T01:24:00Z,26.8015,-97.4706,1.211,1111122 
TCOON,ioos:station:TCOON:003:1,2019-01-12T02:24:00Z,26.8015,-97.4706,1.195,1111122 
TCOON,ioos:station:TCOON:003:1,2019-01-12T03:24:00Z,26.8015,-97.4706,1.192,1111122 
TCOON,ioos:station:TCOON:003:1,2019-01-12T04:24:00Z,26.8015,-97.4706,1.199,1111122 
TCOON,ioos:station:TCOON:003:1,2019-01-12T05:24:00Z,26.8015,-97.4706,1.22,1111122 
TCOON,ioos:station:TCOON:003:1,2019-01-12T06:24:00Z,26.8015,-97.4706,1.206,1111122 
TCOON,ioos:station:TCOON:003:1,2019-01-12T07:24:00Z,26.8015,-97.4706,1.193,1111122 
TCOON,ioos:station:TCOON:003:1,2019-01-12T08:24:00Z,26.8015,-97.4706,1.192,1111122 
TCOON,ioos:station:TCOON:003:1,2019-01-12T09:24:00Z,26.8015,-97.4706,1.181,1111122 
TCOON,ioos:station:TCOON:003:1,2019-01-12T10:24:00Z,26.8015,-97.4706,1.177,1111122 
TCOON,ioos:station:TCOON:003:1,2019-01-12T11:24:00Z,26.8015,-97.4706,1.184,1111122 
TCOON,ioos:station:TCOON:003:1,2019-01-12T12:24:00Z,26.8015,-97.4706,1.183,1111122 
TCOON,ioos:station:TCOON:003:1,2019-01-12T13:24:00Z,26.8015,-97.4706,1.18,1111122 
TCOON,ioos:station:TCOON:003:1,2019-01-12T14:24:00Z,26.8015,-97.4706,1.189,1111122 
TCOON,ioos:station:TCOON:003:1,2019-01-12T15:24:00Z,26.8015,-97.4706,1.192,1111122 
TCOON,ioos:station:TCOON:003:1,2019-01-12T16:24:00Z,26.8015,-97.4706,1.168,1111122 
TCOON,ioos:station:TCOON:003:1,2019-01-12T17:24:00Z,26.8015,-97.4706,1.163,1111122 
TCOON,ioos:station:TCOON:003:1,2019-01-12T18:24:00Z,26.8015,-97.4706,1.166,1111122 
TCOON,ioos:station:TCOON:003:1,2019-01-12T19:24:00Z,26.8015,-97.4706,1.175,1111122 
TCOON,ioos:station:TCOON:003:1,2019-01-12T20:24:00Z,26.8015,-97.4706,1.153,1111122 
TCOON,ioos:station:TCOON:003:1,2019-01-12T21:24:00Z,26.8015,-97.4706,1.145,1111122 
TCOON,ioos:station:TCOON:003:1,2019-01-12T22:24:00Z,26.8015,-97.4706,1.145,1111122 
TCOON,ioos:station:TCOON:003:1,2019-01-12T23:24:00Z,26.8015,-97.4706,1.156,1111122 
TCOON,ioos:station:TCOON:003:1,2019-01-13T00:24:00Z,26.8015,-97.4706,1.167,1111122 